Change the Weather History Date:

Sunday, June 16, 2013

  Actual Average Record
Temperature  
Mean Temperature 65 °F -  
Max Temperature 75 °F 74 °F 84 °F (2002)
Min Temperature 55 °F 56 °F 51 °F (1998)
Growing Degree Days 15 (Base 50)    
Moisture  
Dew Point 48 °F    
Average Humidity 56    
Maximum Humidity 77    
Minimum Humidity 33    
Precipitation  
Precipitation 0.00 in 0.07 in - ()
Sea Level Pressure  
Sea Level Pressure 29.97 in    
Wind  
Wind Speed 5 mph ()    
Max Wind Speed 10 mph    
Max Gust Speed -    
Visibility 6.2 miles    
Events      
Averages and records for this station are not official NWS values.
T = Trace of Precipitation, MM = Missing Value Source: Averaged Metar Reports

Daily Weather History Graph

Daily Weather History Graph

Search for Another Location

Airport or City:

Trip Planner

Search our weather history database for the weather conditions in past years. The results will help you decide how hot, cold, wet, or windy it might be!

Date:

Astronomy

Jun. 16, 2013 Rise Set
Actual Time 5:45 AM CEST 9:56 PM CEST
Civil Twilight 5:02 AM CEST 10:39 PM CEST
Nautical Twilight 4:02 AM CEST 11:40 PM CEST
Astronomical Twilight 2:23 AM CEST 1:18 AM CEST
Moon 1:42 PM CEST (6/16) 1:20 AM CEST (6/16)
Length of Visible Light 17h 36m
Length of Day
16h 11m
Waxing Crescent, 47% of the Moon is Illuminated
Jun 16
Waxing Crescent
Jun 16
First Quarter
Jun 23
Full
Jun 30
Last Quarter
Jul 8
New

Hourly Weather History & Observations

Time (CEST) Temp. Dew Point Humidity Pressure Visibility Wind Dir Wind Speed Gust Speed Precip Events Conditions
12:00 AM 60.8 °F 46.4 °F 59% 30.01 in 6.2 mi SW 8.1 mph - N/A   Unknown
12:30 AM 59.0 °F 46.4 °F 63% 30.04 in 6.2 mi SW 8.1 mph - N/A   Unknown
1:00 AM 59.0 °F 46.4 °F 63% 30.01 in 6.2 mi SW 8.1 mph - N/A   Unknown
1:30 AM 57.2 °F 46.4 °F 67% 30.04 in 6.2 mi WSW 5.8 mph - N/A   Unknown
2:00 AM 57.2 °F 46.4 °F 67% 30.01 in 6.2 mi WSW 4.6 mph - N/A   Unknown
2:30 AM 59.0 °F 46.4 °F 63% 30.01 in 6.2 mi WSW 8.1 mph - N/A   Unknown
3:00 AM 57.2 °F 46.4 °F 67% 30.01 in 6.2 mi WNW 5.8 mph - N/A   Unknown
3:30 AM 57.2 °F 48.2 °F 72% 30.01 in 6.2 mi West 4.6 mph - N/A   Unknown
4:00 AM 55.4 °F 46.4 °F 72% 30.01 in 6.2 mi Variable 1.2 mph - N/A   Unknown
4:30 AM 55.4 °F 46.4 °F 72% 30.01 in 6.2 mi Calm Calm - N/A   Unknown
5:00 AM 55.4 °F 46.4 °F 72% 30.01 in 6.2 mi Calm Calm - N/A   Unknown
5:30 AM 55.4 °F 46.4 °F 72% 30.01 in 6.2 mi South 2.3 mph - N/A   Mist
6:00 AM 55.4 °F 46.4 °F 72% 30.01 in 6.2 mi Variable 2.3 mph - N/A   Unknown
6:30 AM 55.4 °F 46.4 °F 72% 30.01 in 6.2 mi Variable 1.2 mph - N/A   Unknown
7:00 AM 55.4 °F 48.2 °F 77% 30.01 in 6.2 mi Variable 1.2 mph - N/A   Unknown
7:30 AM 57.2 °F 48.2 °F 72% 30.01 in 6.2 mi SW 2.3 mph - N/A   Unknown
8:00 AM 59.0 °F 48.2 °F 67% 30.01 in 6.2 mi South 4.6 mph - N/A   Unknown
8:30 AM 59.0 °F 48.2 °F 67% 30.01 in 6.2 mi Variable 3.5 mph - N/A   Unknown
9:00 AM 60.8 °F 48.2 °F 63% 30.01 in 6.2 mi South 4.6 mph - N/A   Unknown
9:30 AM 60.8 °F 48.2 °F 63% 30.01 in 6.2 mi South 5.8 mph - N/A   Unknown
10:00 AM 62.6 °F 46.4 °F 55% 30.01 in 6.2 mi South 6.9 mph - N/A   Unknown
10:30 AM 64.4 °F 46.4 °F 52% 30.01 in 6.2 mi SW 5.8 mph - N/A   Unknown
11:00 AM 66.2 °F 46.4 °F 49% 29.98 in 6.2 mi SSW 8.1 mph - N/A   Unknown
11:30 AM 66.2 °F 46.4 °F 49% 29.98 in 6.2 mi South 8.1 mph - N/A   Scattered Clouds
12:00 PM 68.0 °F 46.4 °F 46% 29.98 in 6.2 mi SSW 9.2 mph - N/A   Mostly Cloudy
12:30 PM 68.0 °F 48.2 °F 49% 29.98 in 6.2 mi SW 8.1 mph - N/A   Partly Cloudy
1:00 PM 69.8 °F 46.4 °F 43% 29.98 in 6.2 mi Variable 3.5 mph - N/A   Unknown
1:30 PM 69.8 °F 46.4 °F 43% 29.98 in 6.2 mi SSE 6.9 mph - N/A   Unknown
2:00 PM 69.8 °F 46.4 °F 43% 29.95 in 6.2 mi WSW 4.6 mph - N/A   Unknown
2:30 PM 71.6 °F 46.4 °F 41% 29.95 in 6.2 mi South 5.8 mph - N/A   Unknown
3:00 PM 71.6 °F 46.4 °F 41% 29.95 in 6.2 mi Variable 4.6 mph - N/A   Unknown
3:30 PM 73.4 °F 44.6 °F 36% 29.95 in 6.2 mi Variable 3.5 mph - N/A   Unknown
4:00 PM 73.4 °F 44.6 °F 36% 29.95 in 6.2 mi Variable 3.5 mph - N/A   Mostly Cloudy
4:30 PM 73.4 °F 44.6 °F 36% 29.95 in 6.2 mi SSW 3.5 mph - N/A   Unknown
5:00 PM 73.4 °F 42.8 °F 33% 29.92 in 6.2 mi Variable 3.5 mph - N/A   Unknown
5:30 PM 73.4 °F 42.8 °F 33% 29.92 in 6.2 mi Variable 2.3 mph - N/A   Unknown
6:00 PM 75.2 °F 46.4 °F 36% 29.92 in 6.2 mi Variable 2.3 mph - N/A   Unknown
6:30 PM 73.4 °F 48.2 °F 41% 29.89 in 6.2 mi ESE 8.1 mph - N/A   Unknown
7:00 PM 73.4 °F 48.2 °F 41% 29.89 in 6.2 mi East 10.4 mph - N/A   Unknown
7:30 PM 73.4 °F 48.2 °F 41% 29.89 in 6.2 mi ESE 10.4 mph - N/A   Unknown
8:00 PM 73.4 °F 48.2 °F 41% 29.89 in 6.2 mi ESE 10.4 mph - N/A   Unknown
8:30 PM 69.8 °F 51.8 °F 53% 29.89 in 6.2 mi ENE 8.1 mph - N/A   Unknown
9:00 PM 69.8 °F 53.6 °F 56% 29.89 in 6.2 mi ENE 6.9 mph - N/A   Unknown
9:30 PM 68.0 °F 53.6 °F 60% 29.89 in 6.2 mi ENE 8.1 mph - N/A   Unknown
10:00 PM 66.2 °F 53.6 °F 64% 29.89 in 6.2 mi NE 4.6 mph - N/A   Unknown
10:30 PM 66.2 °F 53.6 °F 64% 29.89 in 6.2 mi North 5.8 mph - N/A   Unknown
11:00 PM 66.2 °F 53.6 °F 64% 29.89 in 6.2 mi NNE 4.6 mph - N/A   Unknown
11:30 PM 64.4 °F 53.6 °F 68% 29.89 in 6.2 mi NNE 5.8 mph - N/A   Unknown